Flag for U.S.A. Weather past 2 weeks in Mobile, Alabama, U.S.A.

Now
82 °F

Scattered clouds.


Feels Like: 87 °F
Forecast: 74 / 81 °F
Wind: 21 mph from Southeast

Location: Mobile Downtown Airport

Current Time: May 24, 2015 at 7:03:18 PM

Latest Report: May 24, 2015 at 5:53 PM


Visibility: 10 mi

Pressure: 30.07 "Hg

Humidity: 74%

Dew point: 73 °F

Location of MobileLocation

Historic Weather in Mobile — Graph

°F

Mobile temperature yesterday

Maximum temperature yesterday: 85 °F (at 12:53 PM)
Minimum temperature yesterday: 67 °F (at 3:53 AM)
Average temperature yesterday: 77 °F

Past Weeks' High & Low Weather Summary

 TemperatureHumidityPressure
High89 °F (May 20, 12:53 PM)97% (May 10, 4:53 AM)30.26 "Hg (May 10, 4:53 AM)
Low61 °F (May 22, 6:53 AM)42% (May 22, 2:53 PM)29.97 "Hg (May 20, 2:53 PM)
Average77 °F76%30.12 "Hg
* Reported May 9 5:53 PM — May 24 5:53 PM, Mobile, Weather by CustomWeather, © 2015

Note: Actual official high and low records may vary slightly from our data, if they occured in-between our weather recording intervals... More about our weather records

Advertising

Mobile weather history for previous 24 hours

 ConditionsComfort  
Time TempWeatherWind HumidityBarometerVisibility
5:53 PM
Sun, May 24
82 °FScattered clouds.21 mph74%30.07 "Hg10 mi
4:53 PM83 °FScattered clouds.18 mph77%30.08 "Hg10 mi
3:53 PM84 °FScattered clouds.17 mph72%30.09 "Hg10 mi
2:53 PM85 °FScattered clouds.17 mph72%30.12 "Hg10 mi
1:53 PM84 °FLight rain. Scattered clouds.18 mph74%30.14 "Hg10 mi
12:53 PM85 °FScattered clouds.21 mph72%30.14 "Hg10 mi
11:53 AM85 °FScattered clouds.16 mph75%30.16 "Hg10 mi
10:53 AM83 °FThundershowers. Scattered clouds.17 mph77%30.17 "Hg10 mi
9:53 AM83 °FScattered clouds.15 mph77%30.17 "Hg10 mi
8:53 AM82 °FPartly sunny.13 mph79%30.16 "Hg10 mi
7:53 AM79 °FPartly sunny.9 mph84%30.16 "Hg10 mi
6:53 AM77 °FBroken clouds.12 mph88%30.15 "Hg10 mi
5:53 AM76 °FMostly cloudy.9 mph88%30.15 "Hg10 mi
4:53 AM76 °FPartly cloudy.10 mph91%30.15 "Hg10 mi
3:53 AM76 °FClear.8 mph91%30.15 "Hg10 mi
2:53 AM76 °FClear.9 mph91%30.14 "Hg10 mi
1:53 AM76 °FClear.7 mph91%30.15 "Hg10 mi
12:53 AM77 °FClear.8 mph85%30.16 "Hg10 mi
11:53 PM
Sat, May 23
77 °FClear.10 mph85%30.17 "Hg10 mi
10:53 PM77 °FClear.8 mph79%30.17 "Hg10 mi
9:53 PM78 °FClear.9 mph71%30.17 "Hg10 mi
8:53 PM77 °FClear.5 mph74%30.16 "Hg10 mi
7:53 PM79 °FSunny.7 mph74%30.17 "Hg10 mi
Weather by CustomWeather, © 2015

See weather overviewHow to use our weather pages